Havre, MT

10:29 PM MDT on September 28, 2016 (GMT -0600)
Havre City-County

Weather History for KHVR - March, 2014

Change the Weather History Date:

Saturday, March 29, 2014

  Actual Average Record
Temperature  
Mean Temperature 41 °F 38 °F  
Max Temperature 55 °F 51 °F 75 °F (1966)
Min Temperature 27 °F 26 °F -11 °F (1936)
Degree Days  
Heating Degree Days 24 27  
Month to date heating degree days 1093 947  
Since 1 July heating degree days 7334 7067  
Cooling Degree Days 0 0  
Month to date cooling degree days 0 0  
Year to date cooling degree days 0 0  
Moisture  
Dew Point 32 °F    
Average Humidity 71    
Maximum Humidity 92    
Minimum Humidity 50    
Precipitation  
Precipitation T in 0.02 in 1.38 in (1977)
Month to date precipitation 1.14 0.49  
Year to date precipitation 1.80 1.10  
Snow  
Snow 0.00 in 0.20 in 20.00 in (1977)
Month to date snowfall 7.0 5.9  
Since 1 July snowfall 44.4 33.8  
Snow Depth 0.00 in    
Sea Level Pressure  
Sea Level Pressure 29.71 in    
Wind  
Wind Speed 11 mph (WSW)    
Max Wind Speed 24 mph    
Max Gust Speed 32 mph    
Visibility 10 miles    
Events      
T = Trace of Precipitation, MM = Missing Value Source: NWS Daily Summary

Daily Weather History Graph

Daily Weather History Graph

Search for Another Location

Airport or City:

Trip Planner

Search our weather history database for the weather conditions in past years. The results will help you decide how hot, cold, wet, or windy it might be!

Date:

Astronomy

Mar. 29, 2014 Rise Set
Actual Time 7:02 AM MDT 7:45 PM MDT
Civil Twilight 6:31 AM MDT 8:17 PM MDT
Nautical Twilight 5:53 AM MDT 8:54 PM MDT
Astronomical Twilight 5:14 AM MDT 9:34 PM MDT
Moon 6:18 AM MDT 6:51 PM MDT
Length of Visible Light 13h 45m
Length of Day
12h 42m
Waning Crescent, 1% of the Moon is Illuminated
Mar 29
Waning Crescent
Mar 30
New
Apr 7
First Quarter
Apr 15
Full
Apr 22
Last Quarter

Hourly Weather History & Observations

Time (MDT) Temp. Windchill Dew Point Humidity Pressure Visibility Wind Dir Wind Speed Gust Speed Precip Events Conditions
12:53 AM 28.9 °F - 26.1 °F 89% 29.80 in 10.0 mi Calm Calm - N/A   Partly Cloudy
1:53 AM 28.9 °F 25.2 °F 27.0 °F 92% 29.78 in 10.0 mi SW 3.5 mph - N/A   Clear
2:53 AM 28.9 °F - 27.0 °F 92% 29.76 in 8.0 mi Calm Calm - N/A   Clear
3:53 AM 28.0 °F 22.8 °F 26.1 °F 92% 29.75 in 7.0 mi SW 4.6 mph - N/A   Clear
4:53 AM 28.0 °F 22.8 °F 26.1 °F 92% 29.73 in 8.0 mi West 4.6 mph - N/A   Clear
5:53 AM 28.9 °F 22.8 °F 27.0 °F 92% 29.70 in 9.0 mi WSW 5.8 mph - N/A   Partly Cloudy
6:53 AM 34.0 °F 27.2 °F 30.0 °F 85% 29.69 in 10.0 mi West 8.1 mph - N/A   Overcast
7:53 AM 36.0 °F 30.3 °F 30.9 °F 82% 29.69 in 10.0 mi West 6.9 mph - N/A   Mostly Cloudy
8:53 AM 39.9 °F 33.4 °F 33.1 °F 77% 29.70 in 10.0 mi West 10.4 mph - N/A   Overcast
9:53 AM 43.0 °F 36.0 °F 34.0 °F 71% 29.68 in 10.0 mi SW 13.8 mph - 0.00 in   Overcast
10:53 AM 44.1 °F 37.4 °F 35.1 °F 71% 29.69 in 10.0 mi WSW 13.8 mph - N/A   Mostly Cloudy
11:53 AM 46.9 °F - 37.0 °F 68% 29.68 in 10.0 mi WSW 15.0 mph - N/A   Clear
12:53 PM 48.9 °F - 37.0 °F 64% 29.68 in 10.0 mi SW 17.3 mph - N/A   Clear
1:53 PM 50.0 °F - 37.0 °F 61% 29.68 in 10.0 mi WSW 10.4 mph - N/A   Clear
2:53 PM 52.0 °F - 37.9 °F 59% 29.67 in 10.0 mi SW 20.7 mph 25.3 mph N/A   Clear
3:53 PM 53.1 °F - 35.1 °F 50% 29.66 in 10.0 mi West 18.4 mph 26.5 mph N/A   Clear
4:48 PM 55.4 °F - 35.6 °F 47% 29.63 in 10.0 mi NW 16.1 mph 28.8 mph N/A   Partly Cloudy
4:53 PM 54.0 °F - 36.0 °F 51% 29.67 in 10.0 mi NW 18.4 mph 26.5 mph N/A   Partly Cloudy
5:53 PM 52.0 °F - 33.1 °F 49% 29.68 in 10.0 mi WNW 17.3 mph - N/A   Clear
6:53 PM 51.1 °F - 33.1 °F 50% 29.70 in 10.0 mi West 13.8 mph - N/A   Clear
7:53 PM 43.0 °F 38.2 °F 32.0 °F 65% 29.73 in 10.0 mi WSW 8.1 mph - N/A   Clear
8:53 PM 41.0 °F 34.3 °F 32.0 °F 70% 29.74 in 10.0 mi SW 11.5 mph - N/A   Clear
9:53 PM 41.0 °F 33.9 °F 30.9 °F 67% 29.75 in 10.0 mi SW 12.7 mph - N/A   Clear
10:53 PM 34.0 °F 27.2 °F 28.9 °F 82% 29.76 in 10.0 mi WSW 8.1 mph - N/A   Clear
11:53 PM 35.1 °F 27.9 °F 30.0 °F 82% 29.77 in 10.0 mi West 9.2 mph - N/A   Clear